Satellite-Ground Cal/Val Site Overpasses Predictions

Prediction of Satellite NPP Overpassing Cal/Val Site: Antarctic Dome C

Ground Cal/Val Site Location: Latitude: -75.10, Longitude: 123.35; Satellite-Ground Site NADIR distance within 100 km.

Table of predicted overpasses for the next 14.0 days since TLE Epoch: 5/5/2012
Interval Starting Time Ending Time Minimum Distance Time Minimum Distance (km)
1 05/07/2012 14:53:53 05/07/2012 14:54:21 05/07/2012 14:54:07 21.46
2 05/08/2012 14:35:09 05/08/2012 14:35:24 05/08/2012 14:35:17 85.66
3 05/09/2012 07:36:42 05/09/2012 07:37:09 05/09/2012 07:36:55 39.23
4 05/10/2012 07:17:54 05/10/2012 07:18:15 05/10/2012 07:18:04 70.75
5 05/12/2012 15:00:08 05/12/2012 15:00:31 05/12/2012 15:00:19 58.50
6 05/13/2012 14:41:17 05/13/2012 14:41:42 05/13/2012 14:41:30 50.87
7 05/14/2012 07:42:58 05/14/2012 07:43:17 05/14/2012 07:43:07 74.29
8 05/15/2012 07:24:04 05/15/2012 07:24:31 05/15/2012 07:24:18 33.59
9 05/17/2012 15:06:29 05/17/2012 15:06:37 05/17/2012 15:06:33 96.06
